This demonstration page uses our WeatherBlox Daily Observations layout. Learn more.

Left ArrowRight Arrow

34.74481, -87.66753

Hourly Observations for January 19, 2022

Temp ( °F °C ) Dew Point ( °F °C ) Humidity (%) Winds ( mph kmh ) Pressure ( in mb ) Visibility ( mi km ) Precip ( " mm )
12:53 am 00:53 Mostly Cloudy 48 8.9 34 1.1 58 58 S 6 9 30.10 1019 10 16 0.00 0.00
1:53 am 01:53 Cloudy 48 8.9 35 1.7 61 61 SSE 7 11 30.09 1019 10 16 0.00 0.00
2:53 am 02:53 Cloudy 48 8.9 36 2.2 63 63 SSE 6 9 30.09 1019 10 16 0.00 0.00
3:53 am 03:53 Cloudy 49 9.4 38 3.3 66 66 S 6 9 30.09 1019 10 16 0.00 0.00
4:53 am 04:53 Cloudy 50 10 40 4.4 68 68 S 6 9 30.08 1019 10 16 0.00 0.00
5:53 am 05:53 Cloudy 50 10 42 5.6 74 74 S 9 15 30.08 1019 10 16 0.00 0.00
6:53 am 06:53 Cloudy 50 10 44 6.7 80 80 S 8 13 30.09 1019 10 16 0.00 0.00
7:53 am 07:53 Cloudy 51 10.6 45 7.2 80 80 S 10 17 30.08 1019 10 16 0.00 0.00
8:53 am 08:53 Cloudy 52 11.1 47 8.3 83 83 S 7 11 30.09 1019 10 16 0.00 0.00
9:53 am 09:53 Cloudy 56 13.3 48 8.9 75 75 S 9 15 30.09 1019 10 16 0.00 0.00
10:53 am 10:53 Mostly Cloudy 61 16.1 50 10 67 67 SSW 16 26 30.07 1018 10 16 0.00 0.00
11:53 am 11:53 Mostly Cloudy 63 17.2 50 10 63 63 SSW 13 20 30.03 1017 10 16 0.00 0.00
12:53 pm 12:53 Mostly Sunny 65 18.3 51 10.6 61 61 SSW 16 26 29.98 1015 10 16 0.00 0.00
1:53 pm 13:53 Mostly Sunny 66 18.9 52 11.1 61 61 SSW 17 28 29.96 1015 10 16 0.00 0.00
2:53 pm 14:53 Mostly Cloudy 67 19.4 52 11.1 59 59 SSW 16 26 29.93 1014 10 16 0.00 0.00
3:53 pm 15:53 Cloudy 65 18.3 52 11.1 63 63 S 12 19 29.93 1013 10 16 0.00 0.00
4:53 pm 16:53 Cloudy 64 17.8 52 11.1 65 65 S 13 20 29.90 1013 10 16 0.00 0.00
5:53 pm 17:53 Cloudy with Light Rain 58 14.4 56 13.3 93 93 N 6 9 29.94 1014 7 11 0.13 3.30
6:02 pm 18:02 Cloudy with Light Rain 58 14.4 55 12.8 90 90 N 6 9 29.95 1014 5 8 0.04 1.02
6:27 pm 18:27 Cloudy with Heavy Rain 57 13.9 55 12.8 93 93 N 7 11 29.96 1015 3 4 0.19 4.83
6:43 pm 18:43 Cloudy with Heavy Rain 57 13.9 55 12.8 93 93 N 5 7 29.97 1015 3 5 0.31 7.87
6:48 pm 18:48 Cloudy with Heavy Rain 57 14 55 13 94 94 NNE 7 11 29.97 1015 3 4 0.35 8.89
6:53 pm 18:53 Cloudy with Heavy Rain 57 13.9 55 12.8 93 93 N 5 7 29.96 1015 3 4 0.40 10.16
7:10 pm 19:10 Cloudy with Heavy Rain 57 13.9 55 12.8 93 93 ENE 6 9 29.97 1015 2 3 0.19 4.83
7:24 pm 19:24 Cloudy with Strong Thunderstorms 57 13.9 55 12.8 93 93 WNW 9 15 30.00 1016 3 5 0.29 7.37
7:27 pm 19:27 Cloudy with Strong Thunderstorms 57 13.9 55 12.8 93 93 NW 5 7 30.00 1016 2 3 0.43 10.92
7:41 pm 19:41 Cloudy with Thunderstorms 57 13.9 55 12.8 93 93 W 3 6 30.00 1016 3 5 0.51 12.95
7:48 pm 19:48 Mostly Cloudy with Strong Thunderstorms 57 14 55 13 94 94 WSW 5 7 30.00 1016 3 4 0.56 14.22
7:49 pm 19:49 Cloudy with Strong Thunderstorms 57 13.9 55 12.8 93 93 SW 3 6 29.99 1016 3 4 0.56 14.22
7:54 pm 19:54 Cloudy with Heavy Rain 57 13.9 55 12.8 93 93 S 3 6 29.99 1016 3 4 0.03 0.76
8:02 pm 20:02 Cloudy with Strong Thunderstorms 56 13.3 55 12.8 97 97 SSE 7 11 30.00 1016 3 5 0.07 1.78
8:23 pm 20:23 Cloudy with Rain 56 13.3 55 12.8 97 97 SSE 10 17 29.99 1016 5 8 0.15 3.81
8:53 pm 20:53 Cloudy with Light Rain 56 13.3 55 12.8 97 97 S 5 7 29.98 1015 10 16 0.19 4.83
9:02 pm 21:02 Cloudy 56 13.3 55 12.8 97 97 SSE 3 6 29.99 1016 10 16 0.00 0.00
9:15 pm 21:15 Cloudy 56 13.3 54 12.2 93 93 NW 5 7 29.99 1016 9 14 0.00 0.00
9:25 pm 21:25 Cloudy with Rain 56 13.3 54 12.2 93 93 NW 14 22 30.00 1016 3 4 0.02 0.51
9:29 pm 21:29 Cloudy with Rain 55 12.8 53 11.7 93 93 N 16 26 30.00 1016 3 5 0.03 0.76
9:41 pm 21:41 Cloudy with Light Rain 52 11.1 50 10 93 93 N 13 20 30.02 1016 5 8 0.03 0.76
9:53 pm 21:53 Cloudy 51 10.6 48 8.9 89 89 N 8 13 30.01 1016 9 14 0.03 0.76
10:53 pm 22:53 Cloudy with Light Rain 45 7.2 40 4.4 83 83 N 12 19 30.08 1019 6 10 0.01 0.25
11:39 pm 23:39 Cloudy 42 5.6 39 3.9 89 89 NNW 15 24 30.14 1021 9 14 0.00 0.00
11:53 pm 23:53 Cloudy with Mist and Fog 41 5 37 2.8 86 86 N 14 22 30.11 1020 6 10 0.00 0.00

Powered by AerisWeather